TimeCST,TemperatureF,Dew PointF,Humidity,Sea Level PressureIn,VisibilityMPH,Wind Direction,Wind SpeedMPH,Gust SpeedMPH,PrecipitationIn,Events,Conditions,WindDirDegrees,DateUTC
12:53 AM,39.0,30.0,70,30.32,10.0,North,13.8,-,N/A,,Overcast,10,2012-11-27 06:53:00
1:53 AM,36.0,27.0,70,30.33,10.0,North,15.0,-,N/A,,Clear,10,2012-11-27 07:53:00
2:53 AM,34.0,28.0,79,30.34,8.0,North,11.5,-,N/A,,Clear,10,2012-11-27 08:53:00
3:53 AM,33.1,26.1,75,30.34,8.0,North,9.2,-,N/A,,Clear,360,2012-11-27 09:53:00
4:53 AM,32.0,24.1,73,30.36,10.0,North,10.4,-,N/A,,Clear,10,2012-11-27 10:53:00
5:53 AM,30.9,23.0,72,30.39,10.0,North,6.9,-,N/A,,Clear,360,2012-11-27 11:53:00
6:53 AM,30.0,21.9,72,30.39,10.0,North,8.1,-,N/A,,Clear,350,2012-11-27 12:53:00
7:53 AM,30.9,23.0,72,30.42,10.0,North,8.1,-,N/A,,Clear,360,2012-11-27 13:53:00
8:53 AM,34.0,24.1,67,30.44,10.0,North,10.4,-,N/A,,Clear,350,2012-11-27 14:53:00
9:53 AM,37.0,25.0,62,30.44,10.0,NNE,9.2,-,N/A,,Clear,20,2012-11-27 15:53:00
10:53 AM,39.0,25.0,57,30.43,10.0,North,11.5,-,N/A,,Clear,10,2012-11-27 16:53:00
11:53 AM,42.1,26.1,53,30.42,10.0,NNW,8.1,-,N/A,,Clear,340,2012-11-27 17:53:00
12:53 PM,44.1,25.0,47,30.39,10.0,NNW,6.9,-,N/A,,Clear,340,2012-11-27 18:53:00
1:53 PM,46.0,24.1,42,30.37,10.0,Calm,Calm,-,N/A,,Clear,0,2012-11-27 19:53:00
2:53 PM,46.0,24.1,42,30.35,10.0,Calm,Calm,-,N/A,,Clear,0,2012-11-27 20:53:00
3:53 PM,45.0,25.0,46,30.35,10.0,Calm,Calm,-,N/A,,Clear,0,2012-11-27 21:53:00
4:53 PM,39.9,25.0,55,30.37,10.0,Calm,Calm,-,N/A,,Clear,0,2012-11-27 22:53:00
5:53 PM,37.0,25.0,62,30.37,10.0,Calm,Calm,-,N/A,,Clear,0,2012-11-27 23:53:00
6:53 PM,34.0,26.1,73,30.38,10.0,Calm,Calm,-,N/A,,Clear,0,2012-11-28 00:53:00
7:53 PM,32.0,26.1,79,30.38,10.0,Calm,Calm,-,N/A,,Clear,0,2012-11-28 01:53:00
8:53 PM,28.9,26.1,89,30.37,10.0,Calm,Calm,-,N/A,,Clear,0,2012-11-28 02:53:00
9:53 PM,28.9,25.0,85,30.38,10.0,Calm,Calm,-,N/A,,Clear,0,2012-11-28 03:53:00
10:53 PM,28.0,24.1,85,30.39,10.0,Calm,Calm,-,N/A,,Clear,0,2012-11-28 04:53:00
11:53 PM,27.0,23.0,85,30.40,10.0,Calm,Calm,-,N/A,,Clear,0,2012-11-28 05:53:00